Search your local weather  

 
Advertise Here

Hazardous Weather Conditions

No active alerts for PHILADELPHIA, PENNSYLVANIA

Current Conditions: PHILADELPHIA, PENNSYLVANIA

Fair


78.0 F

Last Updated on Jun 18 2021, 7:55 pm EDT
Humidity: 48%
Wind Speed: SW 9.2 mph
Barometer 29.90 in
Dewpoint: 56.1 F
Visibility: 10.00 mi
Precip: --
Heat Index: NA
Wind Chill: NA
Current conditions at:

Philadelphia - Wings Field Airport, PA (KLOM)

Lat: 40.13758 Lon: -75.2684

Local Radar Image active severe weather and emergency alerts image image weather storm and storm spotter reports image weather observation monitoring service image
Local
Radar
Active
Alerts
Storm Reports Weather
Monitoring

5 Day Forecast for PHILADELPHIA, PENNSYLVANIA (19102)

Friday

Mostly Cloudy

High 85 °F
Friday
Night
Chance of T-storms

Low 70 °F
Saturday

Chance of T-storms

High 89 °F
Saturday
Night
Chance of T-storms

Low 69 °F
Sunday

Isolated T-storm

High 90 °F
Sunday
Night
Partly Cloudy

Low 71 °F
Monday

Chance of Scattered T-storms
High 90 °F
Monday
Night
Chance of T-storms

Low 72 °F
Tuesday

T-storms Likely

High 86 °F

Sign-up For Email & Text Message Weather Alert Notification Services


Advertise Here

Observation History for PHILADELPHIA, PENNSYLVANIA


Time Wind
(mph)
Vis
(mi)
Weather Precip (in) Temperature (F) Relative
Humidity
Wind
Chill
(F)
Heat
Index
(F)
Pressure
Air Dwpt altimeter
(in)
sea level
(mb)
7:55 pm EDT SW 9.2 10.00 Fair -- 78.0 56.1 48% NA NA 29.90 M
6:55 pm EDT S 10.4 10.00 Fair -- 79.0 53.4 42% NA NA 29.88 M
4:55 pm EDT SW 11.5 10.00 Fair -- 83.0 54.0 37% NA 82 29.94 M
3:55 pm EDT SW 10.4 10.00 Fair -- 83.0 54.3 37% NA 82 29.96 M
2:55 pm EDT SW 8.1 10.00 Fair -- 83.0 51.8 34% NA 82 29.99 M
1:55 pm EDT W 9.2 10.00 Fair -- 83.0 52.7 35% NA 82 30.00 M
12:55 pm EDT W 9.2 10.00 Fair -- 82.0 53.4 38% NA 81 30.02 M
11:55 am EDT W 11.5 G 17.3 10.00 Fair -- 80.0 50.9 36% NA 80 30.03 M
10:55 am EDT SW 6.9 10.00 Fair -- 79.0 52.0 40% NA NA 30.03 M
9:55 am EDT SW 8.1 10.00 Fair -- 76.0 51.3 42% NA NA 30.05 M
8:55 am EDT W 5.8 10.00 Fair -- 71.0 52.2 52% NA NA 30.05 M
7:55 am EDT SW 5.8 10.00 Fair -- 65.0 52.3 63% NA NA 30.05 M
6:35 am EDT N 0.0 10.00 Fair -- 52.0 51.3 98% NA NA 30.07 M
5:55 am EDT N 0.0 10.00 Fair -- 49.0 48.7 98% NA NA 30.08 M
4:55 am EDT N 0.0 10.00 Fair -- 50.0 48.9 97% NA NA 30.07 M
3:55 am EDT N 0.0 10.00 Fair -- 51.0 49.6 97% NA NA 30.06 M
2:55 am EDT N 0.0 10.00 Fair -- 51.0 50.2 97% NA NA 30.06 M
1:55 am EDT N 0.0 10.00 Fair -- 52.0 50.0 93% NA NA 30.06 M
12:55 am EDT N 0.0 10.00 Fair -- 53.0 50.7 92% NA NA 30.05 M
11:55 pm EDT N 0.0 10.00 Fair -- 55.0 50.7 87% NA NA 30.05 M
10:35 pm EDT N 0.0 10.00 Fair -- 57.0 52.3 86% NA NA 30.05 M
9:55 pm EDT N 0.0 10.00 Fair -- 58.0 52.2 80% NA NA 30.04 M
8:55 pm EDT N 0.0 10.00 Fair -- 61.0 52.9 74% NA NA 30.02 M

Regional Weather Observation

Philadelphia, Northeast Philadelphia Airport, PA (KPNE)

Fair
80.0 F

Pottstown, Pottstown Limerick Airport, PA (KPTW)

Fair
76.0 F

Doylestown, Doylestown Airport, PA (KDYL)

Fair
79.0 F

Pennridge Airport, PA (KCKZ)

Fair
75.0 F

Quakertown Airport, PA (KUKT)

Fair
77.0 F

Brandywine Regional Airport, PA (KOQN)

Fair
77.0 F
Advertise Here

Advertise Here